#timestamp,LO_Frequency,Hit,StdDev 
1543399215.6,286046999.6,N
1543399235.5,286046998.7,N
1543399255.3,286046999.3,N
1543399275.1,286046999.2,N
1543399295.9,286046996.8,Y
1543399315.7,286046999.5,P
1543399335.5,286047000.2,N
1543399355.4,286046999.4,N
1543399375.2,286046997.0,Y
1543399395.1,286046998.0,P
1543399396.0,286046998.0,N
1543399415.8,286046996.5,P
1543399435.6,286046999.3,N
1543399455.5,286046996.7,Y
1543399475.3,286047001.2,P
1543399495.2,286047000.8,N
1543399515.9,286047000.8,N
1543399535.7,286047001.0,N
1543399555.6,286047001.1,N
1543399575.4,286046998.4,N
1543399595.2,286046998.8,N
1543399615.1,286046998.7,N
1543399616.0,286046998.7,N
1543399635.8,286046996.5,N
1543399655.7,286046999.2,N
1543399675.5,286046999.3,N
1543399695.3,286046999.9,N
1543399715.2,286046998.1,N
1543399735.0,286046996.6,N
1543399735.9,286046996.6,N
1543399755.8,286046996.5,N
1543399775.6,286046997.4,N
1543399795.4,286046999.1,N
1543399815.3,286046997.3,N
1543399835.1,286046996.6,N
1543399855.8,286046996.5,N
1543399875.7,286046997.2,N
1543399895.5,286046995.2,Y
1543399915.4,286046996.9,P
1543399935.2,286046996.8,P
1543399955.0,286046999.3,N
1543399955.9,286046999.3,N
1543399975.8,286046997.4,N
1543399995.6,286046997.5,N
1543400015.4,286046997.5,N
1543400035.3,286046999.3,N
1543400055.1,286046996.5,Y
1543400075.9,286046998.2,P
1543400095.7,286046999.4,P
1543400115.5,286046999.4,N
1543400135.4,286046999.5,N
1543400155.2,286046996.6,Y
1543400175.1,286046998.6,P
1543400176.0,286046998.6,P
1543400195.8,286046997.0,P
1543400215.6,286046999.1,N
1543400235.5,286046999.1,N
1543400255.3,286046998.2,N
1543400275.1,286046999.4,N
1543400295.9,286046998.3,N
1543400315.7,286046999.3,N
1543400335.6,286046998.3,N
1543400355.4,286047000.9,N
1543400375.2,286046998.3,N
1543400395.1,286046998.2,N
1543400396.0,286046998.2,N
1543400415.8,286046998.4,N
1543400435.6,286046999.3,N
1543400455.5,286046996.7,Y
1543400475.3,286047000.8,P
1543400495.2,286046999.7,N
1543400515.0,286047000.9,N
1543400515.9,286047000.9,N
1543400535.7,286047000.8,N
1543400555.6,286046999.0,N
1543400575.4,286046999.7,N
1543400595.3,286046998.6,N
1543400615.1,286046998.5,N
1543400635.8,286046999.3,N
1543400655.7,286047000.8,N
1543400675.5,286047000.8,N
1543400695.4,286047000.6,N
1543400715.2,286047000.7,N
1543400735.0,286046999.4,N
1543400735.9,286046999.4,N
1543400755.8,286046999.0,N
1543400775.6,286046999.1,N
1543400795.4,286046997.5,N
1543400815.3,286046995.2,Y
1543400835.1,286046993.4,P
1543400855.9,286046995.8,N
1543400875.7,286046994.9,N
1543400895.5,286046996.2,N
1543400945.4,286046995.8,E
1543400955.3,286046997.2,N
1543400975.2,286047000.4,P
1543400995.9,286047000.9,N
1543401015.7,286047002.4,N
1543401035.6,286046999.8,N
1543401055.4,286047000.6,N
1543401075.2,286047000.9,N
1543401095.1,286046999.3,N
1543401096.0,286046999.3,N
1543401115.8,286046998.1,N
1543401135.7,286046998.3,N
1543401155.5,286046998.8,N
1543401175.3,286046999.3,N
1543401195.2,286046999.1,N
1543401215.0,286046999.2,N
1543401215.9,286046999.2,N
1543401235.8,286046999.0,N
1543401255.6,286046996.8,N
1543401275.4,286046997.7,N
1543401295.3,286046995.1,Y
1543401315.1,286046998.0,P
1543401335.9,286046999.0,N
1543401355.7,286046998.3,P
1543401375.5,286046998.9,N
1543401395.4,286046998.7,N
1543401415.2,286046998.8,N
1543401435.0,286046998.5,Y
1543401435.9,286046998.5,P
1543401455.8,286047000.8,P
1543401475.6,286047000.7,N
1543401495.5,286047000.6,N
1543401515.3,286046998.5,N
1543401535.1,286046999.0,N
1543401555.9,286046999.4,N
1543401575.7,286046999.1,N
1543401595.5,286046999.6,N
1543401615.4,286046996.8,Y
1543401635.2,286046999.1,P
1543401655.1,286046999.2,P
1543401656.0,286046999.2,P
1543401675.8,286046996.7,Y
1543401695.6,286047001.1,P
1543401715.5,286047000.2,N
1543401735.3,286046999.9,N
1543401755.2,286047000.5,N
1543401775.9,286046998.4,N
1543401795.7,286046999.1,N
1543401815.6,286046996.9,Y
1543401835.4,286046996.7,P
1543401855.2,286046996.8,N
1543401875.1,286046995.1,P
1543401906.0,286046997.0,E
1543401915.0,286046998.4,N
1543401915.9,286046998.4,P
1543401935.8,286047002.7,P
1543401955.6,286047002.3,N
1543401975.5,286046998.1,N
1543401995.3,286046998.4,N
1543402015.1,286046996.8,N
1543402035.9,286046998.2,N
1543402055.7,286047000.8,N
1543402075.5,286047000.1,N
1543402095.4,286046999.9,N
1543402115.2,286047000.3,N
1543402135.1,286046998.3,N
1543402136.0,286046998.3,N
1543402155.8,286046998.6,N
1543402175.6,286046999.0,N
1543402195.5,286046997.2,N
1543402215.3,286046997.8,N
1543402235.1,286046997.3,N
1543402255.9,286046997.3,N
1543402275.7,286046998.0,N
1543402295.6,286046996.4,N
1543402315.4,286046996.4,N
1543402335.2,286046993.6,Y
1543402355.1,286046996.1,P
1543402356.0,286046996.1,P
1543402375.8,286046995.4,P
1543402395.7,286046995.4,Y
1543402415.5,286046998.4,P
1543402435.3,286047000.4,N
1543402455.2,286047001.9,N
1543402475.0,286047001.7,N
1543402475.9,286047001.7,N
1543402495.8,286047004.0,N
1543402515.6,286047002.5,N
1543402535.4,286047001.6,N
1543402555.3,286047002.6,N
1543402575.1,286047002.3,N
1543402595.8,286047001.1,N
1543402615.7,286047000.1,N
1543402635.5,286046999.7,N
1543402655.4,286047001.5,N
1543402675.2,286047002.7,N
1543402695.0,286047000.6,N
1543402695.9,286047000.6,N
1543402715.8,286047000.3,N
1543402735.6,286046998.7,N
1543402755.4,286046999.5,N
1543402775.3,286046999.0,N
1543402795.1,286046999.2,N
